Date/Time (UTC),ProbHail,ProbWind,ProbTor,MESH,VIL Density,Flash Rate,Max Flash Density,LJA sigma-level,Max 0-2km AzShear,LLAZ 98th%,MLAZ 98th%,MUCAPE,MLCAPE,CAPE -10C to -30C,MLCIN,SRH 0-1km AGL,EBShear,MeanWind 0-1km AGL,Norm. Sat. Growth Rate,PWAT,WBZ,AvgBeamHgt,size
2020/02/05 20:20,1,2,2,0.34,1.50,7,0.16,0.0,5,3,4,1215,478,416,39,283,38.4,42.6,0,1.7,3322.32,2570.0,281
2020/02/05 20:22,1,3,2,0.47,1.70,7,0.18,0.0,5,3,4,1201,468,414,40,282,38.1,42.5,0,1.7,3322.32,2520.0,150
2020/02/05 20:24,1,16,3,0.47,1.70,7,0.28,0.0,5,5,4,1194,436,412,42,280,37.7,42.3,0,1.7,3322.32,2490.0,116
2020/02/05 20:26,2,29,2,0.47,1.70,16,0.33,0.0,6,5,5,1206,277,396,44,271,38.0,41.2,0,1.7,3291.84,2240.0,471
2020/02/05 20:28,5,50,2,0.72,2.40,17,0.34,0.0,6,5,6,1201,381,405,46,273,37.0,41.8,0,1.7,3322.32,2340.0,333
2020/02/05 20:30,7,62,2,0.72,2.80,21,0.45,0.0,6,5,6,1200,381,404,47,272,37.0,41.7,0,1.7,3322.32,2330.0,319
2020/02/05 20:32,7,64,3,0.72,2.80,21,0.45,0.0,6,6,6,1197,392,403,49,271,36.6,41.8,0,1.7,3322.32,2310.0,162
2020/02/05 20:34,9,65,3,0.71,2.80,26,0.51,2.3,6,6,8,1251,381,392,54,260,36.9,41.0,0,1.7,3230.88,2090.0,119
2020/02/05 20:36,9,65,2,0.67,2.80,26,0.51,0.0,6,6,7,1253,366,390,54,259,37.4,40.8,0,1.7,3200.4,2070.0,174
2020/02/05 20:38,9,63,2,0.67,2.80,26,0.51,0.4,6,5,7,1265,387,387,55,257,37.8,40.6,0,1.7,3139.4400000000005,2020.0,184
2020/02/05 20:40,16,57,1,0.67,2.30,33,0.63,1.7,6,5,4,1265,191,383,55,266,41.8,39.2,0,1.7,3017.5200000000004,1820.0,522
2020/02/05 20:42,16,36,1,0.67,2.30,33,0.63,0.0,6,4,4,1276,359,382,61,256,39.2,40.0,0,1.7,3048.0,1890.0,226
2020/02/05 20:44,16,27,1,0.65,2.90,33,0.63,0.0,5,4,4,1276,358,382,62,256,39.4,39.9,0,1.7,3048.0,1870.0,247
2020/02/05 20:46,13,52,1,0.62,2.90,33,0.63,0.0,5,4,4,1276,358,382,62,256,39.4,39.9,0,1.7,3048.0,1870.0,241
2020/02/05 20:48,4,20,1,0.62,2.90,10,0.63,0.0,5,3,4,1270,309,380,66,259,41.0,39.3,0,1.6,3017.5200000000004,1770.0,211
2020/02/05 20:50,4,20,1,0.60,2.70,10,0.63,0.0,5,3,4,1271,319,378,68,260,41.5,39.2,0,1.6,3017.5200000000004,1710.0,272
2020/02/05 20:52,4,6,0,0.63,2.60,8,0.63,0.0,4,3,4,1271,321,378,68,260,41.6,39.2,0,1.6,3017.5200000000004,1700.0,276
2020/02/05 20:54,5,21,0,0.66,2.70,8,0.63,0.0,4,3,4,1276,320,373,78,262,43.1,38.7,0,1.6,3017.5200000000004,1560.0,185
2020/02/05 20:56,12,55,0,0.87,3.00,13,0.63,1.5,4,3,5,1324,301,390,150,298,46.5,44.1,0,1.6,3017.5200000000004,1490.0,240
2020/02/05 20:58,12,55,1,0.87,3.10,13,0.63,0.0,8,3,5,1324,301,390,150,298,46.5,44.1,0,1.6,3017.5200000000004,1490.0,241
2020/02/05 21:00,16,55,1,0.87,3.10,18,0.63,1.4,8,4,5,1322,284,390,148,301,47.4,43.9,0,1.7,3017.5200000000004,1430.0,245
2020/02/05 21:02,54,88,1,1.23,3.10,35,0.63,4.2,8,5,4,1318,279,391,149,301,49.3,43.7,0,1.7,3017.5200000000004,1360.0,263
2020/02/05 21:04,54,81,1,1.23,3.10,36,0.63,0.0,8,5,4,1318,280,391,149,301,49.3,43.7,0,1.7,3017.5200000000004,1360.0,270
2020/02/05 21:06,56,82,4,1.23,3.10,36,0.63,0.0,8,5,4,1309,277,391,146,301,51.3,43.4,0,1.6,3017.5200000000004,1310.0,313
2020/02/05 21:08,53,85,4,1.08,3.00,41,0.63,1.2,15,5,4,1309,306,393,145,298,53.1,43.2,0,1.6,3017.5200000000004,1240.0,329
2020/02/05 21:10,60,88,4,1.08,3.10,56,0.87,2.1,15,5,4,1308,303,393,145,298,53.1,43.2,0,1.6,3017.5200000000004,1240.0,322
2020/02/05 21:12,56,85,4,1.02,3.10,56,0.87,0.0,15,5,4,1311,306,395,142,297,53.8,42.9,0,1.6,3017.5200000000004,1200.0,335
2020/02/05 21:14,57,91,12,1.02,3.10,56,0.87,0.0,19,8,4,1338,368,394,132,291,54.8,42.6,0,1.6,3017.5200000000004,1120.0,470
2020/02/05 21:16,57,91,12,1.02,2.70,56,0.87,0.0,19,8,4,1341,384,394,130,290,54.9,42.5,0,1.6,3017.5200000000004,1110.0,475
2020/02/05 21:18,35,78,12,0.87,2.60,33,0.87,0.5,19,8,4,1344,377,393,125,290,55.1,42.2,0,1.6,3017.5200000000004,1070.0,469
2020/02/05 21:20,44,88,34,0.87,2.60,46,0.87,1.2,17,11,7,1350,448,389,112,287,55.6,41.8,0,1.6,3017.5200000000004,1000.0,547
2020/02/05 21:22,46,84,31,0.89,2.60,51,0.87,0.4,17,12,7,1352,469,388,108,287,55.6,41.6,0,1.6,3017.5200000000004,980.0,522
2020/02/05 21:24,46,84,31,0.89,2.50,51,0.87,0.0,17,12,7,1352,469,388,108,287,55.6,41.6,0,1.6,3017.5200000000004,980.0,522
2020/02/05 21:26,46,88,34,0.89,2.50,51,0.87,0.0,18,14,7,1350,463,384,100,289,55.5,41.2,0,1.6,3017.5200000000004,960.0,491
2020/02/05 21:28,46,92,40,0.89,2.60,51,0.87,0.8,18,14,7,1345,537,376,82,291,55.9,40.8,0,1.6,3017.5200000000004,910.0,540
2020/02/05 21:30,23,81,40,0.69,2.60,36,0.87,0.6,18,14,7,1345,543,376,80,291,56.0,40.8,0,1.6,3017.5200000000004,910.0,568
2020/02/05 21:32,23,74,52,0.70,2.60,36,0.87,0.0,18,14,7,1332,585,373,67,293,56.1,40.6,0,1.6,3017.5200000000004,880.0,549
2020/02/05 21:34,27,85,69,0.70,2.50,36,0.87,0.9,16,12,7,1329,714,371,49,303,57.0,40.4,0,1.6,2987.0400000000004,830.0,609
2020/02/05 21:36,55,91,70,1.07,2.50,36,0.87,0.4,18,12,7,1331,722,372,48,303,57.1,40.4,0,1.6,2987.0400000000004,830.0,619
2020/02/05 21:38,52,91,73,1.07,2.50,33,0.87,0.0,18,12,7,1327,790,372,45,315,57.4,40.2,0,1.6,2987.0400000000004,810.0,575
2020/02/05 21:40,55,91,82,1.07,2.50,33,0.87,0.8,18,12,7,1391,1007,374,30,310,60.1,40.4,0,1.6,2987.0400000000004,760.0,851
2020/02/05 21:42,42,88,81,0.92,2.50,33,0.82,0.0,18,12,7,1342,912,374,32,321,58.1,39.8,0,1.6,2987.0400000000004,780.0,680
2020/02/05 21:44,13,78,81,0.54,2.40,26,0.82,0.0,18,12,7,1343,916,374,32,321,58.1,39.8,0,1.6,2987.0400000000004,780.0,694
2020/02/05 21:46,15,78,83,0.54,2.10,26,0.82,0.0,18,12,7,1425,1086,376,20,311,61.3,40.2,0,1.6,2987.0400000000004,720.0,799
2020/02/05 21:48,8,73,81,0.44,2.40,18,0.82,0.4,14,11,6,1500,1164,378,16,299,63.3,39.7,0,1.6,2987.0400000000004,710.0,886
2020/02/05 21:50,12,81,75,0.44,2.40,30,0.82,1.5,14,11,6,1505,1166,379,16,298,63.4,39.6,0,1.6,2987.0400000000004,710.0,916
2020/02/05 21:52,14,76,70,0.43,2.40,31,0.82,0.1,14,11,6,1537,1197,383,14,291,64.4,39.2,0,1.6,2956.56,710.0,819
2020/02/05 21:54,10,76,66,0.43,2.30,31,0.82,0.0,13,11,6,1550,1199,370,10,239,63.9,46.1,0,1.7,3230.88,760.0,636
2020/02/05 21:56,10,86,80,0.40,2.80,33,0.82,0.6,20,12,6,1554,1201,370,10,239,64.0,46.1,0,1.7,3230.88,760.0,645
2020/02/05 21:58,12,87,80,0.42,2.80,36,0.82,0.7,20,16,6,1612,1237,369,12,238,65.5,46.1,0,1.7,3230.88,780.0,588
2020/02/05 22:00,12,87,80,0.42,2.80,36,0.82,0.0,21,18,6,1660,1266,369,12,238,66.5,46.1,0,1.7,3230.88,790.0,546
2020/02/05 22:02,12,83,80,0.42,2.30,36,0.82,0.9,21,18,6,1739,1328,371,10,235,67.8,46.0,0,1.7,3230.88,810.0,620
2020/02/05 22:04,12,78,80,0.41,2.10,36,0.82,0.0,21,18,6,1739,1328,371,10,235,67.8,46.0,0,1.7,3230.88,810.0,620
2020/02/05 22:06,10,78,82,0.41,2.10,32,0.82,0.0,21,17,7,1862,1409,384,8,234,69.3,45.9,0,1.7,3230.88,840.0,570
2020/02/05 22:08,10,78,73,0.43,2.20,32,0.37,0.6,21,16,5,1921,1438,399,7,233,69.4,45.9,0,1.7,3230.88,850.0,590
2020/02/05 22:10,9,78,73,0.43,2.20,30,0.37,0.0,17,14,5,1937,1445,405,6,233,69.4,45.9,0,1.7,3230.88,860.0,635
2020/02/05 22:12,16,81,72,0.49,2.20,43,0.37,4.9,17,14,5,2011,1489,439,3,233,69.6,45.7,0,1.7,3230.88,900.0,631
2020/02/05 22:14,16,81,76,0.49,2.20,43,0.37,0.0,17,14,7,2033,1497,451,3,232,69.7,45.8,0,1.7,3230.88,900.0,672
2020/02/05 22:16,26,85,76,0.61,2.20,43,0.37,0.0,20,13,7,2035,1507,453,3,234,69.6,45.6,0,1.7,3230.88,920.0,740
2020/02/05 22:18,26,88,76,0.62,2.10,43,0.37,0.3,20,13,6,2060,1536,468,2,234,70.0,45.5,0,1.7,3230.88,960.0,655
2020/02/05 22:20,18,81,76,0.62,2.10,27,0.37,0.0,17,12,6,2075,1557,481,1,235,70.2,45.3,0,1.7,3230.88,1000.0,635
2020/02/05 22:22,16,81,76,0.62,2.10,25,0.37,0.0,17,12,7,2075,1563,483,1,236,70.2,45.2,0,1.7,3230.88,1020.0,666
2020/02/05 22:24,16,79,73,0.61,1.90,25,0.38,0.7,17,13,7,2076,1563,483,1,236,70.3,45.3,0,1.7,3230.88,1010.0,632
2020/02/05 22:26,7,73,78,0.38,1.90,25,0.38,0.0,17,14,8,2081,1587,493,0,241,69.7,44.7,0,1.7,3230.88,1120.0,564
2020/02/05 22:28,15,85,78,0.47,2.10,41,0.38,5.1,17,14,8,2080,1584,500,0,240,69.8,44.8,0,1.7,3230.88,1110.0,597
2020/02/05 22:30,15,85,81,0.47,2.40,41,0.51,0.0,17,14,8,2080,1583,503,0,240,69.7,44.8,0,1.7,3230.88,1100.0,592
2020/02/05 22:32,17,89,86,0.47,2.40,48,0.55,1.4,17,13,9,2065,1578,514,999,244,69.3,44.4,0,1.7,3230.88,1160.0,492
2020/02/05 22:34,26,95,90,0.47,2.40,69,0.63,1.8,18,13,10,2060,1572,521,999,245,69.1,44.3,0,1.7,3230.88,1150.0,459
2020/02/05 22:36,26,92,90,0.47,2.30,69,0.63,0.0,18,13,10,2059,1570,526,999,245,69.1,44.3,0,1.7,3230.88,1130.0,451
2020/02/05 22:38,26,95,90,0.47,2.30,69,0.63,0.0,18,14,10,1983,1532,525,999,257,68.8,43.7,0,1.7,3230.88,1220.0,389
2020/02/05 22:40,26,95,91,0.47,2.00,69,0.72,0.7,18,14,9,1964,1520,529,999,259,68.6,43.6,0,1.7,3200.4,1220.0,385
2020/02/05 22:42,14,85,91,0.44,2.00,48,0.72,0.0,18,14,9,1948,1513,527,999,261,68.6,43.5,0,1.7,3200.4,1240.0,411
2020/02/05 22:44,12,85,87,0.35,1.80,48,0.72,0.0,17,12,9,1941,1508,523,999,262,68.6,43.4,0,1.7,3200.4,1250.0,421
2020/02/05 22:46,12,87,87,0.35,1.90,48,0.72,0.0,15,13,8,1783,1419,494,999,283,68.3,42.5,0,1.7,3200.4,1400.0,372
2020/02/05 22:48,11,78,82,0.45,1.90,28,0.72,0.5,15,13,8,1746,1392,486,0,287,68.2,42.3,0,1.7,3200.4,1420.0,398
2020/02/05 22:50,10,76,85,0.45,1.90,26,0.72,0.0,15,13,8,1745,1391,482,0,287,68.2,42.2,0,1.7,3200.4,1430.0,382
2020/02/05 22:52,19,85,85,0.45,1.80,48,0.77,3.7,15,12,6,1588,1282,431,0,305,68.0,41.1,0,1.7,3200.4,1580.0,441
2020/02/05 22:54,22,85,85,0.55,2.30,48,0.77,0.0,18,12,6,1449,1214,400,0,306,67.8,39.8,0,1.7,3169.92,1580.0,652
2020/02/05 22:56,20,89,73,0.57,2.30,48,0.77,0.0,18,10,6,1093,971,320,7,314,54.7,44.5,0,1.8,3169.92,1600.0,618
2020/02/05 22:58,20,89,73,0.57,2.30,48,0.77,0.2,15,10,6,1085,953,318,7,316,54.4,44.5,0,1.8,3169.92,1600.0,559
2020/02/05 23:00,15,75,85,0.57,1.70,37,0.77,0.1,15,11,8,1068,907,311,6,316,53.9,44.2,0,1.8,3169.92,1550.0,628
2020/02/05 23:02,11,73,80,0.54,1.70,32,0.77,0.0,15,11,7,1058,893,308,6,317,53.7,44.2,0,1.8,3169.92,1550.0,577
2020/02/05 23:04,5,72,80,0.30,1.80,32,0.77,0.0,15,11,7,1051,883,306,6,317,53.6,44.1,0,1.8,3169.92,1520.0,569
2020/02/05 23:06,4,72,62,0.25,1.90,37,0.77,3.1,13,9,6,1040,867,303,5,315,53.3,43.8,0,1.8,3169.92,1460.0,591
2020/02/05 23:08,5,64,49,0.30,1.90,37,0.77,0.0,11,8,7,1038,863,302,5,314,53.2,43.7,0,1.8,3169.92,1440.0,595
2020/02/05 23:10,6,71,49,0.30,1.90,37,0.77,0.2,11,8,6,1029,841,301,3,307,52.5,43.3,0,1.8,3169.92,1320.0,633
2020/02/05 23:12,6,72,58,0.30,1.90,37,0.77,0.4,13,9,7,1021,822,300,3,300,51.6,42.9,0,1.8,3200.4,1220.0,560
2020/02/05 23:14,4,65,59,0.30,1.80,27,0.77,0.1,13,9,7,1020,817,300,3,298,51.3,42.8,0,1.8,3200.4,1190.0,548
2020/02/05 23:16,4,64,57,0.34,1.80,27,0.77,0.0,13,9,6,1020,796,300,3,286,49.0,41.9,0,1.8,3200.4,1070.0,566
2020/02/05 23:18,3,65,57,0.34,1.80,27,0.77,0.1,13,9,6,1024,791,300,2,281,48.4,41.5,0,1.8,3200.4,1010.0,596
2020/02/05 23:20,3,64,23,0.34,1.80,27,0.77,0.0,11,7,5,1059,777,301,2,270,46.6,40.1,0,1.8,3230.88,910.0,424
2020/02/05 23:22,2,60,21,0.23,1.80,26,0.77,0.0,11,7,5,1069,776,303,2,271,45.6,39.8,0,1.8,3230.88,830.0,436
2020/02/05 23:24,2,53,8,0.23,1.70,26,0.74,0.0,8,6,5,1078,778,306,2,271,45.2,39.4,0,1.8,3230.88,770.0,413
2020/02/05 23:26,2,65,46,0.26,1.70,22,0.55,0.9,16,8,7,1036,785,301,2,278,45.9,41.1,0,1.8,3230.88,860.0,603
2020/02/05 23:28,2,61,62,0.26,1.70,22,0.55,0.9,16,9,7,1036,785,301,1,280,46.2,41.2,0,1.8,3230.88,830.0,633
2020/02/05 23:30,4,68,55,0.36,1.90,32,0.53,2.6,16,9,7,1061,787,306,1,276,46.4,40.7,0,1.8,3230.88,750.0,731
2020/02/05 23:32,4,64,54,0.36,1.90,32,0.39,0.0,16,9,6,1034,782,300,1,283,45.7,41.4,0,1.8,3230.88,830.0,545
